• In Romania
  • List of Countries
  • For 7 days
  • Water Temperature
  • Satellite Maps
  • Weather Map
  • Weather Widgets
  • user-avatar
    Login

    Hourly Weather Ravda

    Today, 20 October, Friday

    Time Temperature Precipitation Wind Pressure Humidity
    00:00 +18°C° 0 mm 1 mps 762 mmHg 71%
    01:00 +16°C° 0 mm 1 mps 762 mmHg 70%
    02:00 +16°C° 0 mm 1 mps 762 mmHg 69%
    03:00 +16°C° 0 mm 1 mps 762 mmHg 67%
    04:00 +16°C° 0 mm 1 mps 762 mmHg 66%
    05:00 +16°C° 0 mm 1 mps 762 mmHg 64%
    06:00 +16°C° 0 mm 1 mps 762 mmHg 60%
    07:00 +18°C° 0 mm 1 mps 762 mmHg 57%
    08:00 +19°C° 0 mm 1 mps 762 mmHg 51%
    09:00 +21°C° 0 mm 1 mps 763 mmHg 45%
    10:00 +24°C° 0 mm 1 mps 763 mmHg 39%
    11:00 +26°C° 0 mm 1 mps 763 mmHg 33%
    12:00 +27°C° 0 mm 1 mps 763 mmHg 31%
    13:00 +28°C° 0 mm 1 mps 762 mmHg 28%
    14:00 +29°C° 0 mm 1 mps 762 mmHg 26%
    15:00 +27°C° 0 mm 2 mps 762 mmHg 30%
    16:00 +26°C° 0 mm 2 mps 762 mmHg 34%
    17:00 +24°C° 0 mm 2 mps 762 mmHg 38%
    18:00 +23°C° 0 mm 2 mps 762 mmHg 40%
    19:00 +21°C° 0 mm 2 mps 762 mmHg 43%
    20:00 +20°C° 0 mm 2 mps 762 mmHg 46%
    21:00 +19°C° 0 mm 2 mps 762 mmHg 47%
    22:00 +20°C° 0 mm 1 mps 762 mmHg 48%
    23:00 +19°C° 0 mm 1 mps 763 mmHg 49%

    Tomorrow, 21 October, Saturday

    Time Temperature Precipitation Wind Pressure Humidity
    00:00 +19°C° 0 mm 1 mps 762 mmHg 50%
    01:00 +19°C° 0 mm 1 mps 762 mmHg 51%
    02:00 +18°C° 0 mm 1 mps 762 mmHg 52%
    03:00 +18°C° 0 mm 1 mps 762 mmHg 53%
    04:00 +17°C° 0 mm 2 mps 762 mmHg 53%
    05:00 +16°C° 0 mm 2 mps 762 mmHg 54%
    06:00 +17°C° 0 mm 2 mps 762 mmHg 53%
    07:00 +18°C° 0 mm 2 mps 762 mmHg 52%
    08:00 +19°C° 0 mm 2 mps 762 mmHg 50%
    09:00 +21°C° 0 mm 2 mps 762 mmHg 44%
    10:00 +24°C° 0 mm 2 mps 762 mmHg 38%
    11:00 +26°C° 0 mm 1 mps 762 mmHg 31%
    12:00 +27°C° 0 mm 1 mps 762 mmHg 30%
    13:00 +28°C° 0 mm 1 mps 761 mmHg 28%
    14:00 +28°C° 0 mm 1 mps 761 mmHg 26%
    15:00 +27°C° 0 mm 2 mps 761 mmHg 30%
    16:00 +25°C° 0 mm 2 mps 761 mmHg 33%
    17:00 +24°C° 0 mm 2 mps 760 mmHg 37%
    18:00 +23°C° 0 mm 2 mps 760 mmHg 39%
    19:00 +21°C° 0 mm 2 mps 760 mmHg 42%
    20:00 +19°C° 0 mm 2 mps 761 mmHg 44%
    21:00 +19°C° 0 mm 2 mps 760 mmHg 45%
    22:00 +19°C° 0 mm 2 mps 760 mmHg 46%
    23:00 +18°C° 0 mm 2 mps 760 mmHg 47%

    Day after tomorrow, 22 October, Sunday

    Time Temperature Precipitation Wind Pressure Humidity
    00:00 +18°C° 0 mm 2 mps 760 mmHg 48%
    01:00 +18°C° 0 mm 2 mps 760 mmHg 49%
    02:00 +17°C° 0 mm 2 mps 760 mmHg 49%
    03:00 +17°C° 0 mm 3 mps 760 mmHg 51%
    04:00 +17°C° 0 mm 3 mps 759 mmHg 52%
    05:00 +17°C° 0 mm 3 mps 759 mmHg 54%
    06:00 +17°C° 0 mm 3 mps 760 mmHg 54%
    07:00 +17°C° 0 mm 3 mps 760 mmHg 54%
    08:00 +18°C° 0 mm 4 mps 760 mmHg 54%
    09:00 +19°C° 0 mm 4 mps 760 mmHg 50%
    10:00 +21°C° 0 mm 4 mps 761 mmHg 46%
    11:00 +22°C° 0 mm 4 mps 761 mmHg 42%
    12:00 +23°C° 0 mm 4 mps 761 mmHg 41%
    13:00 +23°C° 0 mm 4 mps 760 mmHg 40%
    14:00 +24°C° 0 mm 3 mps 760 mmHg 39%
    15:00 +22°C° 0 mm 4 mps 760 mmHg 44%
    16:00 +21°C° 0 mm 4 mps 760 mmHg 50%
    17:00 +20°C° 0 mm 4 mps 760 mmHg 56%
    18:00 +18°C° 0 mm 4 mps 760 mmHg 63%
    19:00 +17°C° 0 mm 4 mps 761 mmHg 70%
    20:00 +16°C° 0 mm 3 mps 761 mmHg 78%
    21:00 +16°C° 0 mm 3 mps 761 mmHg 80%
    22:00 +16°C° 0 mm 3 mps 761 mmHg 83%
    23:00 +14°C° 0 mm 4 mps 761 mmHg 86%

    23 October, Monday

    Time Temperature Precipitation Wind Pressure Humidity
    00:00 +14°C° 0 mm 4 mps 761 mmHg 88%
    01:00 +14°C° 0 mm 4 mps 761 mmHg 89%
    02:00 +14°C° 0 mm 4 mps 760 mmHg 91%
    03:00 +14°C° 0 mm 4 mps 760 mmHg 92%
    04:00 +14°C° 0 mm 4 mps 760 mmHg 93%
    05:00 +14°C° 0 mm 4 mps 759 mmHg 94%
    06:00 +14°C° 0 mm 4 mps 759 mmHg 91%
    07:00 +15°C° 0 mm 5 mps 759 mmHg 88%
    08:00 +15°C° 0 mm 5 mps 758 mmHg 84%
    09:00 +16°C° 0 mm 5 mps 758 mmHg 80%
    10:00 +17°C° 0 mm 5 mps 758 mmHg 75%
    11:00 +19°C° 0 mm 5 mps 757 mmHg 70%
    12:00 +19°C° 0 mm 5 mps 757 mmHg 70%
    13:00 +19°C° 0 mm 5 mps 756 mmHg 70%
    14:00 +19°C° 0 mm 5 mps 756 mmHg 70%
    15:00 +19°C° 0.1 mm 5 mps 756 mmHg 74%
    16:00 +17°C° 0.1 mm 5 mps 755 mmHg 78%
    17:00 +16°C° 0.1 mm 5 mps 755 mmHg 83%
    18:00 +16°C° 0.1 mm 5 mps 755 mmHg 85%
    19:00 +16°C° 0.1 mm 5 mps 755 mmHg 87%
    20:00 +16°C° 0.1 mm 5 mps 755 mmHg 89%
    21:00 +15°C° 0 mm 5 mps 754 mmHg 90%
    22:00 +15°C° 0 mm 5 mps 754 mmHg 91%
    23:00 +15°C° 0 mm 5 mps 754 mmHg 92%

    24 October, Tuesday

    Time Temperature Precipitation Wind Pressure Humidity
    00:00 +15°C° 0 mm 5 mps 754 mmHg 92%
    01:00 +15°C° 0 mm 4 mps 754 mmHg 92%
    02:00 +15°C° 0 mm 4 mps 753 mmHg 92%
    03:00 +15°C° 0.1 mm 5 mps 753 mmHg 93%
    04:00 +15°C° 0.1 mm 5 mps 753 mmHg 93%
    05:00 +15°C° 0.1 mm 6 mps 753 mmHg 93%
    06:00 +16°C° 0.3 mm 6 mps 753 mmHg 91%
    07:00 +16°C° 0.3 mm 6 mps 753 mmHg 88%
    08:00 +16°C° 0.3 mm 6 mps 753 mmHg 86%
    09:00 +17°C° 0.9 mm 6 mps 754 mmHg 84%
    10:00 +17°C° 0.9 mm 5 mps 754 mmHg 83%
    11:00 +17°C° 0.9 mm 5 mps 754 mmHg 81%
    12:00 +17°C° 0.4 mm 5 mps 754 mmHg 78%
    13:00 +19°C° 0.4 mm 6 mps 754 mmHg 75%
    14:00 +18°C° 0.4 mm 7 mps 754 mmHg 72%
    15:00 +18°C° 0.3 mm 7 mps 755 mmHg 76%
    16:00 +17°C° 0.3 mm 8 mps 755 mmHg 80%
    17:00 +17°C° 0.3 mm 8 mps 755 mmHg 84%
    18:00 +17°C° 0.4 mm 8 mps 756 mmHg 86%
    19:00 +17°C° 0.4 mm 9 mps 756 mmHg 87%
    20:00 +17°C° 0.4 mm 10 mps 756 mmHg 89%
    21:00 +16°C° 0.1 mm 10 mps 757 mmHg 88%
    22:00 +16°C° 0.1 mm 10 mps 757 mmHg 87%
    23:00 +16°C° 0.1 mm 10 mps 757 mmHg 86%

    25 October, Wednesday

    Time Temperature Precipitation Wind Pressure Humidity
    00:00 +16°C° 0.1 mm 10 mps 758 mmHg 85%
    01:00 +14°C° 0.1 mm 10 mps 758 mmHg 84%
    02:00 +14°C° 0.1 mm 10 mps 758 mmHg 84%
    03:00 +13°C° 0.1 mm 10 mps 758 mmHg 83%
    04:00 +13°C° 0.1 mm 10 mps 758 mmHg 83%
    05:00 +12°C° 0.1 mm 10 mps 759 mmHg 82%
    06:00 +12°C° 0.2 mm 10 mps 759 mmHg 81%
    07:00 +11°C° 0.2 mm 11 mps 759 mmHg 80%
    08:00 +11°C° 0.2 mm 11 mps 760 mmHg 79%
    09:00 +9°C° 0.5 mm 11 mps 760 mmHg 78%
    10:00 +8°C° 0.5 mm 12 mps 761 mmHg 76%
    11:00 +7°C° 0.5 mm 12 mps 761 mmHg 75%
    12:00 +7°C° 0.5 mm 12 mps 761 mmHg 73%
    13:00 +7°C° 0.5 mm 12 mps 761 mmHg 71%
    14:00 +7°C° 0.5 mm 12 mps 761 mmHg 69%
    15:00 +7°C° 0.7 mm 12 mps 761 mmHg 69%
    16:00 +7°C° 0.7 mm 11 mps 762 mmHg 70%
    17:00 +7°C° 0.7 mm 11 mps 762 mmHg 71%
    18:00 +6°C° 0.4 mm 11 mps 762 mmHg 72%
    19:00 +6°C° 0.4 mm 11 mps 763 mmHg 74%
    20:00 +4°C° 0.4 mm 11 mps 763 mmHg 76%
    21:00 +4°C° 0.1 mm 11 mps 764 mmHg 76%
    22:00 +4°C° 0.1 mm 11 mps 764 mmHg 76%
    23:00 +3°C° 0.1 mm 11 mps 764 mmHg 77%
    Show more